Location: ????????
(55.8351°N, 38.7040°E)
Time: 13:09:38
(UTC+00:00)

ALOS - Pass Details

Date: 14 April 2024
Orbit: 674 x 675 km, 98.0° (Epoch: 23 May)

Event Time Altitude Azimuth Distance (km) Brightness Sun altitude
Rises 01:39:38 0° 10° (N) 3,050 6.2 -6.3°
Reaches altitude 10° 01:42:05 10° 0° (N) 2,130 5.2 -6.0°
Maximum altitude 01:46:06 30° 300° (WNW) 1,222 3.3 -5.5°
Drops below altitude 10° 01:50:06 10° 240° (WSW) 2,116 4.1 -5.0°
Enters shadow 01:51:10 - 235° (SW) 2,500 4.5 -4.8°
